This demonstration page uses our WeatherBlox Daily Observations layout. Learn more.

Left ArrowRight Arrow

39.51506, -84.39828

Hourly Observations for June 6, 2022

Temp ( °F °C ) Dew Point ( °F °C ) Humidity (%) Winds ( mph kmh ) Pressure ( in mb ) Visibility ( mi km ) Precip ( " mm )
12:15 am 00:15 Clear 64 17.5 59 15.1 86 86 N 3 6 29.85 1011 10 16 0.00 0.00
12:35 am 00:35 Clear 63 17 59 15.2 89 89 Calm 29.85 1011 10 16 0.00 0.00
12:55 am 00:55 Clear with Mist and Fog 62 16.7 59 15.1 90 90 Calm 29.85 1011 5 8 0.00 0.00
1:15 am 01:15 Clear 61 16.3 60 15.4 94 94 NW 3 6 29.86 1011 10 16 0.00 0.00
1:35 am 01:35 Clear 63 17 59 14.9 88 88 Calm 29.86 1011 10 16 0.00 0.00
1:55 am 01:55 Clear 61 16.3 60 15.3 94 94 Calm 29.86 1011 10 16 0.00 0.00
2:15 am 02:15 Clear 61 16.3 60 15.6 96 96 Calm 29.86 1011 10 16 0.00 0.00
2:35 am 02:35 Clear 61 16 60 15.6 97 97 Calm 29.85 1011 10 16 0.00 0.00
2:55 am 02:55 Partly Cloudy 60 15.4 59 15.2 99 99 Calm 29.86 1011 10 16 0.00 0.00
3:15 am 03:15 Mostly Cloudy 60 15.6 60 15.3 98 98 Calm 29.86 1011 10 16 0.00 0.00
3:35 am 03:35 Partly Cloudy 60 15.6 60 15.4 99 99 Calm 29.85 1011 10 16 0.00 0.00
3:55 am 03:55 Partly Cloudy 59 15 59 15 100 100 Calm 29.86 1011 10 16 0.00 0.00
4:15 am 04:15 Clear 59 15 59 15 100 100 Calm 29.86 1011 10 16 0.00 0.00
4:35 am 04:35 Clear 59 15 N/A N/A Calm 29.85 1011 10 16 0.00 0.00
4:55 am 04:55 Mostly Cloudy 60 15.3 59 15.2 99 99 Calm 29.84 1010 10 16 0.00 0.00
5:15 am 05:15 Cloudy 61 16 59 15 94 94 Calm 29.83 1010 10 16 0.00 0.00
5:35 am 05:35 Cloudy 61 16.1 61 15.9 99 99 Calm 29.83 1010 10 16 0.00 0.00
5:55 am 05:55 Mostly Cloudy 61 16 N/A N/A Calm 29.83 1010 10 16 0.00 0.00
6:15 am 06:15 Partly Cloudy 61 16 61 16 100 100 Calm 29.83 1010 10 16 0.00 0.00
6:35 am 06:35 Sunny 59 15 N/A N/A Calm 29.84 1010 10 16 0.00 0.00
6:55 am 06:55 Sunny 61 15.9 60 15.8 99 99 Calm 29.84 1011 10 16 0.00 0.00
7:15 am 07:15 Sunny 62 16.6 61 16.3 98 98 Calm 29.84 1011 10 16 0.00 0.00
7:35 am 07:35 Sunny 65 18.2 63 17 93 93 Calm 29.85 1011 10 16 0.00 0.00
7:55 am 07:55 Sunny 69 20.4 61 16 76 76 Calm 29.85 1011 10 16 0.00 0.00
8:15 am 08:15 Partly Cloudy 70 21.3 62 16.4 74 74 Calm 29.86 1011 10 16 0.00 0.00
8:35 am 08:35 Mostly Cloudy 71 21.8 61 16.3 71 71 SSW 10 17 29.86 1011 10 16 0.00 0.00
8:55 am 08:55 Partly Cloudy 73 22.7 62 16.9 70 70 SSW 8 13 29.86 1011 10 16 0.00 0.00
9:15 am 09:15 Partly Cloudy 73 22.9 62 16.9 69 69 S 9 15 29.85 1011 10 16 0.00 0.00
9:35 am 09:35 Mostly Cloudy 73 22.9 63 17.1 70 70 S 13 20 29.85 1011 10 16 0.00 0.00
9:55 am 09:55 Partly Cloudy 74 23.4 63 17.4 69 69 S 10 17 29.84 1010 10 16 0.00 0.00
10:15 am 10:15 Partly Cloudy 76 24.4 64 17.7 66 66 S 8 13 29.84 1011 10 16 0.00 0.00
10:35 am 10:35 Mostly Cloudy 75 24.1 62 16.7 63 63 SSW 14 22 29.85 1011 10 16 0.00 0.00
10:55 am 10:55 Cloudy 74 23.5 62 16.9 67 67 SSW 14 22 29.85 1011 10 16 0.00 0.00
11:15 am 11:15 Cloudy 74 23.4 63 17.2 68 68 SSW 7 11 29.85 1011 10 16 0.00 0.00
11:35 am 11:35 Cloudy with Nearby Thunderstorms 74 23.5 63 17.1 67 67 SSW 8 13 29.86 1011 10 16 0.00 0.00
11:55 am 11:55 Mostly Cloudy with Light Rain 75 23.9 65 18.1 70 70 SW 16 26 29.86 1011 7 11 0.00 0.00
12:15 pm 12:15 Cloudy with Light Rain 73 22.6 66 19 80 80 SSW 6 9 29.85 1011 10 16 0.00 0.00
12:35 pm 12:35 Mostly Cloudy 74 23.6 66 19.1 76 76 S 10 17 29.85 1011 10 16 0.00 0.00
12:55 pm 12:55 Mostly Cloudy 73 22.8 64 17.9 74 74 SSW 10 17 29.85 1011 10 16 0.00 0.00
1:15 pm 13:15 Cloudy with Nearby Thunderstorms 74 23.1 65 18.2 74 74 S 18 30 29.85 1011 10 16 0.00 0.00
1:35 pm 13:35 Cloudy with Light Rain 69 20.8 65 18.5 87 87 SSW 9 15 29.84 1011 10 16 0.04 1.02
1:55 pm 13:55 Partly Cloudy 72 22.3 69 20.7 91 91 SSE 9 15 29.83 1010 10 16 0.06 1.52
2:15 pm 14:15 Sunny 73 22.7 69 20.5 87 87 SE 10 17 29.82 1010 10 16 0.01 0.25
2:35 pm 14:35 Sunny 76 24.2 69 20.4 79 79 S 14 22 29.81 1009 10 16 0.01 0.25
2:55 pm 14:55 Sunny 77 24.8 67 19.7 73 73 SSE 14 22 29.79 1009 10 16 0.01 0.25
3:15 pm 15:15 Partly Cloudy 78 25.6 67 19.3 68 68 S 15 24 29.80 1009 10 16 0.00 0.00
3:35 pm 15:35 Sunny 78 25.5 66 19.1 68 68 S 10 17 29.79 1009 10 16 0.00 0.00
3:55 pm 15:55 Sunny 79 26.3 67 19.3 65 65 S 16 26 29.77 1008 10 16 0.00 0.00
4:15 pm 16:15 Sunny 78 25.3 65 18.6 67 67 S 13 20 29.77 1008 10 16 0.00 0.00
4:35 pm 16:35 Mostly Cloudy 77 25 66 18.8 69 69 SSW 22 35 29.80 1009 10 16 0.00 0.00
4:55 pm 16:55 Cloudy with Strong Thunderstorms 66 18.9 65 18.5 98 98 SW 12 19 29.85 1011 4 6 0.01 0.25
5:15 pm 17:15 Cloudy with Strong Thunderstorms 66 19 66 19 100 100 S 9 15 29.84 1010 5 8 0.01 0.25
5:35 pm 17:35 Cloudy with Light Rain 66 19 N/A N/A S 7 11 29.84 1010 7 11 0.04 1.02
5:55 pm 17:55 Cloudy with Light Rain 66 19 N/A N/A SSE 7 11 29.82 1010 7 11 0.06 1.52
6:15 pm 18:15 Cloudy with Light Rain 66 19 66 19 100 100 SSE 5 7 29.81 1009 7 11 0.02 0.51
6:35 pm 18:35 Cloudy with Light Rain 68 20 N/A N/A SSE 7 11 29.79 1009 10 16 0.03 0.76
6:55 pm 18:55 Mostly Cloudy 68 19.8 67 19.5 98 98 SSE 8 13 29.79 1009 10 16 0.05 1.27
7:15 pm 19:15 Cloudy with Light Rain 67 19.7 67 19.4 98 98 S 8 13 29.80 1009 10 16 0.02 0.51
7:35 pm 19:35 Cloudy with Light Rain 67 19.6 67 19.5 99 99 S 6 9 29.79 1009 10 16 0.03 0.76
7:55 pm 19:55 Mostly Cloudy 68 20 68 20 100 100 SE 5 7 29.78 1009 10 16 0.04 1.02
8:15 pm 20:15 Partly Cloudy 66 19 N/A N/A SSE 7 11 29.79 1009 10 16 0.01 0.25
8:35 pm 20:35 Sunny 67 19.6 67 19.4 99 99 SE 5 7 29.78 1008 10 16 0.02 0.51
8:55 pm 20:55 Sunny 66 19 66 19 100 100 SSE 3 6 29.78 1008 10 16 0.03 0.76
9:15 pm 21:15 Mostly Cloudy with Rain 67 19.6 67 19.5 99 99 S 14 22 29.81 1009 5 8 0.00 0.00
9:35 pm 21:35 Cloudy with Strong Thunderstorms 66 19 N/A N/A S 12 19 29.81 1009 5 8 0.01 0.25
9:55 pm 21:55 Cloudy with Light Rain 66 19 N/A N/A SSE 10 17 29.81 1009 10 16 0.01 0.25
10:15 pm 22:15 Cloudy with Light Rain 67 19.3 66 19.1 99 99 S 9 15 29.82 1010 10 16 0.01 0.25
10:35 pm 22:35 Cloudy 66 18.9 66 18.7 99 99 S 10 17 29.82 1010 10 16 0.01 0.25
10:55 pm 22:55 Cloudy with Light Rain 66 18.9 66 18.8 99 99 SSW 8 13 29.83 1010 10 16 0.01 0.25
11:15 pm 23:15 Cloudy with Light Rain 66 19 66 19 100 100 S 7 11 29.83 1010 10 16 0.01 0.25
11:35 pm 23:35 Cloudy with Light Rain 65 18.6 65 18.6 100 100 S 10 17 29.83 1010 10 16 0.01 0.25
11:55 pm 23:55 Cloudy with Rain 66 19 N/A N/A S 10 17 29.82 1010 7 11 0.01 0.25

Powered by AerisWeather